Prairie Du Chien, WI

6:47 PM CDT on March 26, 2017 (GMT -0500)
Prairie Du Chien Municipal

Weather History for KPDC - November, 2015

Change the Weather History Date:

Tuesday, November 10, 2015

  Actual Average Record
Temperature  
Mean Temperature 40 °F -  
Max Temperature 55 °F 46 °F 70 °F (1949)
Min Temperature 26 °F 31 °F 11 °F (1979)
Degree Days  
Heating Degree Days 24    
Moisture  
Dew Point 30 °F    
Average Humidity 65    
Maximum Humidity 94    
Minimum Humidity 36    
Precipitation  
Precipitation 0.00 in - - ()
Sea Level Pressure  
Sea Level Pressure 30.03 in    
Wind  
Wind Speed 4 mph (ESE)    
Max Wind Speed 9 mph    
Max Gust Speed -    
Visibility 9 miles    
Events      
Averages and records for this station are not official NWS values.
T = Trace of Precipitation, MM = Missing Value Source: NWS Daily Summary

Daily Weather History Graph

Daily Weather History Graph

Search for Another Location

Airport or City:

Trip Planner

Search our weather history database for the weather conditions in past years. The results will help you decide how hot, cold, wet, or windy it might be!

Date:

Astronomy

Nov. 10, 2015 Rise Set
Actual Time 6:50 AM CST 4:45 PM CST
Civil Twilight 6:20 AM CST 5:16 PM CST
Nautical Twilight 5:46 AM CST 5:50 PM CST
Astronomical Twilight 5:12 AM CST 6:23 PM CST
Moon 5:36 AM CST (11/10) 4:33 PM CST (11/10)
Length of Visible Light 10h 56m
Length of Day
9h 55m
Waning Crescent, 1% of the Moon is Illuminated
Nov 10
Waning Crescent
Nov 11
New
Nov 19
First Quarter
Nov 25
Full
Dec 3
Last Quarter

Hourly Weather History & Observations

Time (CST) Temp. Windchill Dew Point Humidity Pressure Visibility Wind Dir Wind Speed Gust Speed Precip Events Conditions
12:10 AM 31.3 °F 27.9 °F 27.5 °F 86% 30.13 in 10.0 mi East 3.5 mph - N/A   Clear
12:30 AM 31.8 °F 27.3 °F 27.9 °F 85% 30.12 in 10.0 mi East 4.6 mph - N/A   Clear
12:50 AM 31.8 °F 28.5 °F 28.0 °F 86% 30.12 in 10.0 mi ESE 3.5 mph - N/A   Clear
1:10 AM 30.9 °F 26.2 °F 27.9 °F 88% 30.12 in 7.0 mi ESE 4.6 mph - N/A   Clear
1:30 AM 31.5 °F 28.1 °F 28.4 °F 88% 30.11 in 10.0 mi SE 3.5 mph - N/A   Clear
1:50 AM 30.9 °F 26.2 °F 28.6 °F 91% 30.11 in 7.0 mi SE 4.6 mph - N/A   Clear
2:10 AM 30.7 °F 26.0 °F 28.8 °F 92% 30.12 in 7.0 mi ESE 4.6 mph - N/A   Clear
2:30 AM 28.8 °F 25.0 °F 26.2 °F 90% 30.12 in 7.0 mi East 3.5 mph - N/A   Clear
2:50 AM 29.7 °F 24.7 °F 27.5 °F 92% 30.12 in 7.0 mi ESE 4.6 mph - N/A   Clear
3:10 AM 29.1 °F - 27.0 °F 92% 30.12 in 7.0 mi Calm Calm - N/A   Clear
3:30 AM 28.9 °F - 26.8 °F 92% 30.12 in 7.0 mi Calm Calm - N/A   Clear
3:50 AM 28.9 °F 23.9 °F 27.1 °F 93% 30.12 in 7.0 mi ESE 4.6 mph - N/A   Clear
4:10 AM 29.3 °F 25.6 °F 27.3 °F 92% 30.12 in 7.0 mi ESE 3.5 mph - N/A   Clear
4:30 AM 27.9 °F - 26.1 °F 93% 30.12 in 7.0 mi Calm Calm - N/A   Clear
4:50 AM 26.8 °F 20.2 °F 25.0 °F 93% 30.11 in 7.0 mi ESE 5.8 mph - N/A   Clear
5:10 AM 28.2 °F 24.4 °F 26.4 °F 93% 30.11 in 7.0 mi ESE 3.5 mph - N/A   Clear
5:30 AM 27.7 °F 22.4 °F 25.7 °F 92% 30.11 in 7.0 mi ESE 4.6 mph - N/A   Clear
5:50 AM 28.8 °F 25.0 °F 27.0 °F 93% 30.11 in 7.0 mi ESE 3.5 mph - N/A   Clear
6:10 AM 28.6 °F 23.5 °F 26.8 °F 93% 30.11 in 7.0 mi ESE 4.6 mph - N/A   Clear
6:30 AM 28.0 °F 22.8 °F 26.4 °F 94% 30.10 in 7.0 mi ESE 4.6 mph - N/A   Clear
6:50 AM 27.9 °F - 26.1 °F 93% 30.10 in 7.0 mi Calm Calm - N/A   Clear
7:10 AM 28.4 °F 24.6 °F 26.4 °F 92% 30.11 in 7.0 mi SE 3.5 mph - N/A   Clear
7:30 AM 27.9 °F - 25.9 °F 92% 30.12 in 5.0 mi Calm Calm - N/A   Clear
7:50 AM 28.8 °F 25.0 °F 26.6 °F 92% 30.11 in 7.0 mi SE 3.5 mph - N/A   Clear
8:10 AM 30.4 °F - 27.9 °F 90% 30.12 in 7.0 mi Calm Calm - N/A   Clear
8:30 AM 31.8 °F - 28.6 °F 88% 30.12 in 7.0 mi Calm Calm - N/A   Clear
8:50 AM 32.2 °F - 29.8 °F 91% 30.12 in 7.0 mi Calm Calm - N/A   Clear
9:10 AM 34.5 °F - 31.3 °F 88% 30.11 in 7.0 mi Calm Calm - N/A   Clear
9:30 AM 37.4 °F - 32.0 °F 81% 30.10 in 10.0 mi Calm Calm - N/A   Clear
9:50 AM 39.2 °F - 32.0 °F 75% 30.09 in 10.0 mi Calm Calm - N/A   Clear
10:10 AM 42.1 °F - 33.4 °F 71% 30.09 in 10.0 mi Calm Calm - N/A   Clear
10:30 AM 43.9 °F - 33.4 °F 67% 30.08 in 10.0 mi Calm Calm - N/A   Clear
10:50 AM 48.7 °F - 32.0 °F 52% 30.07 in 10.0 mi Calm Calm - N/A   Clear
11:10 AM 50.2 °F - 32.2 °F 50% 30.07 in 10.0 mi SSW 3.5 mph - N/A   Clear
11:30 AM 52.0 °F - 29.5 °F 42% 30.06 in 10.0 mi SSE 4.6 mph - N/A   Clear
11:50 AM 52.3 °F - 30.9 °F 44% 30.05 in 10.0 mi SSW 4.6 mph - N/A   Clear
12:10 PM 53.1 °F - 31.3 °F 43% 30.04 in 10.0 mi ESE 3.5 mph - N/A   Clear
12:30 PM 54.9 °F - 30.7 °F 40% 30.03 in 10.0 mi SE 9.2 mph - N/A   Clear
12:50 PM 54.0 °F - 30.2 °F 40% 30.02 in 10.0 mi SSW 3.5 mph - N/A   Clear
1:10 PM 54.9 °F - 28.9 °F 37% 30.01 in 10.0 mi South 6.9 mph - N/A   Clear
1:30 PM 55.2 °F - 29.1 °F 37% 30.01 in 10.0 mi SSW 5.8 mph - N/A   Clear
1:50 PM 55.0 °F - 28.9 °F 37% 29.99 in 10.0 mi SE 6.9 mph - N/A   Clear
2:10 PM 55.6 °F - 29.8 °F 37% 29.99 in 10.0 mi SE 6.9 mph - N/A   Clear
2:30 PM 55.8 °F - 29.3 °F 36% 29.98 in 10.0 mi SSE 4.6 mph - N/A   Clear
2:50 PM 55.8 °F - 29.5 °F 37% 29.98 in 10.0 mi ESE 6.9 mph - N/A   Clear
3:10 PM 55.4 °F - 28.6 °F 36% 29.97 in 10.0 mi SE 5.8 mph - N/A   Clear
3:30 PM 54.7 °F - 28.8 °F 37% 29.96 in 10.0 mi SE 6.9 mph - N/A   Clear
3:50 PM 54.0 °F - 28.8 °F 38% 29.95 in 10.0 mi SE 4.6 mph - N/A   Clear
4:10 PM 53.6 °F - 30.0 °F 41% 29.95 in 10.0 mi SE 5.8 mph - N/A   Mostly Cloudy
4:30 PM 52.7 °F - 30.2 °F 42% 29.94 in 10.0 mi SE 4.6 mph - N/A   Overcast
4:50 PM 51.6 °F - 31.3 °F 46% 29.93 in 10.0 mi ESE 4.6 mph - N/A   Overcast
5:10 PM 51.1 °F - 31.8 °F 48% 29.93 in 10.0 mi ESE 3.5 mph - N/A   Overcast
5:30 PM 51.1 °F - 31.3 °F 47% 29.93 in 10.0 mi ESE 4.6 mph - N/A   Overcast
5:50 PM 50.9 °F - 31.1 °F 47% 29.93 in 10.0 mi ESE 5.8 mph - N/A   Overcast
6:10 PM 50.5 °F - 31.3 °F 48% 29.92 in 10.0 mi ESE 6.9 mph - N/A   Overcast
6:30 PM 50.2 °F - 31.5 °F 49% 29.92 in 10.0 mi ESE 4.6 mph - N/A   Overcast
6:50 PM 50.2 °F - 31.6 °F 49% 29.93 in 10.0 mi ESE 4.6 mph - N/A   Overcast
7:10 PM 50.0 °F - 31.8 °F 50% 29.92 in 10.0 mi East 3.5 mph - N/A   Overcast
7:30 PM 49.5 °F - 32.0 °F 51% 29.92 in 10.0 mi East 4.6 mph - N/A   Overcast
7:50 PM 49.8 °F - 32.0 °F 50% 29.92 in 10.0 mi ESE 4.6 mph - N/A   Overcast
8:10 PM 49.5 °F - 32.4 °F 52% 29.92 in 10.0 mi ESE 4.6 mph - N/A   Overcast
8:30 PM 49.5 °F - 32.5 °F 52% 29.92 in 10.0 mi East 4.6 mph - N/A   Overcast
8:50 PM 49.5 °F - 32.4 °F 52% 29.93 in 10.0 mi ESE 3.5 mph - N/A   Overcast
9:10 PM 49.3 °F - 32.5 °F 53% 29.92 in 10.0 mi East 4.6 mph - N/A   Overcast
9:30 PM 49.3 °F - 32.7 °F 53% 29.92 in 10.0 mi East 4.6 mph - N/A   Overcast
9:50 PM 49.1 °F - 32.7 °F 53% 29.91 in 10.0 mi East 4.6 mph - N/A   Overcast
10:10 PM 49.1 °F - 33.4 °F 55% 29.91 in 10.0 mi East 4.6 mph - N/A   Overcast
10:30 PM 49.3 °F - 32.7 °F 53% 29.91 in 10.0 mi East 3.5 mph - N/A   Overcast
10:50 PM 48.9 °F - 32.5 °F 53% 29.90 in 10.0 mi East 4.6 mph - N/A   Overcast
11:10 PM 49.1 °F - 32.9 °F 54% 29.89 in 10.0 mi East 3.5 mph - N/A   Overcast
11:30 PM 49.1 °F - 32.9 °F 54% 29.89 in 10.0 mi East 4.6 mph - N/A   Overcast
11:50 PM 49.5 °F - 32.5 °F 52% 29.89 in 10.0 mi East 5.8 mph - N/A   Overcast